When you browse on this site, cookies collect data to enhance your experience and personalize the content and advertising you see.
Visit our Privacy Policy to learn more. By continuing to use the site, you agree to this use of cookies and data.
  • In France
  • List of Countries
  • For 7 days
  • Water Temperature
  • Satellite Maps
  • Weather Map
  • Weather Widgets
  • user-avatar
    Login

    Hourly Weather Solden

    Today, 19 February, Tuesday

    Time Temperature Precipitation Wind Pressure Humidity
    00:00 -7°C° 0 mm 1 mps 581 mmHg 58%
    01:00 -8°C° 0 mm 2 mps 581 mmHg 56%
    02:00 -8°C° 0 mm 2 mps 580 mmHg 54%
    03:00 -8°C° 0 mm 2 mps 580 mmHg 52%
    04:00 -9°C° 0 mm 2 mps 580 mmHg 51%
    05:00 -9°C° 0 mm 2 mps 580 mmHg 50%
    06:00 -9°C° 0 mm 2 mps 580 mmHg 49%
    07:00 -9°C° 0 mm 2 mps 580 mmHg 48%
    08:00 -7°C° 0 mm 2 mps 581 mmHg 52%
    09:00 -3°C° 0 mm 1 mps 582 mmHg 55%
    10:00 -1°C° 0 mm 1 mps 583 mmHg 59%
    11:00 0°C° 0 mm 1 mps 583 mmHg 60%
    12:00 +1°C° 0 mm 1 mps 584 mmHg 62%
    13:00 +1°C° 0 mm 0 mps 584 mmHg 63%
    14:00 +1°C° 0 mm 0 mps 584 mmHg 65%
    15:00 +1°C° 0 mm 0 mps 583 mmHg 67%
    16:00 0°C° 0 mm 0 mps 583 mmHg 69%
    17:00 -1°C° 0 mm 1 mps 583 mmHg 71%
    18:00 -3°C° 0 mm 1 mps 582 mmHg 73%
    19:00 -4°C° 0 mm 1 mps 581 mmHg 75%
    20:00 -6°C° 0 mm 1 mps 581 mmHg 77%
    21:00 -8°C° 0 mm 2 mps 581 mmHg 78%
    22:00 -8°C° 0 mm 2 mps 581 mmHg 79%
    23:00 -8°C° 0 mm 2 mps 581 mmHg 77%

    Tomorrow, 20 February, Wednesday

    Time Temperature Precipitation Wind Pressure Humidity
    00:00 -8°C° 0 mm 2 mps 581 mmHg 75%
    01:00 -9°C° 0 mm 2 mps 581 mmHg 74%
    02:00 -9°C° 0 mm 2 mps 581 mmHg 73%
    03:00 -9°C° 0 mm 2 mps 581 mmHg 73%
    04:00 -9°C° 0 mm 2 mps 581 mmHg 72%
    05:00 -9°C° 0 mm 2 mps 581 mmHg 73%
    06:00 -9°C° 0 mm 2 mps 581 mmHg 73%
    07:00 -9°C° 0 mm 2 mps 581 mmHg 73%
    08:00 -7°C° 0 mm 2 mps 582 mmHg 72%
    09:00 -3°C° 0 mm 1 mps 583 mmHg 72%
    10:00 -1°C° 0 mm 1 mps 584 mmHg 71%
    11:00 0°C° 0 mm 1 mps 585 mmHg 71%
    12:00 +1°C° 0 mm 1 mps 585 mmHg 71%
    13:00 +1°C° 0 mm 0 mps 586 mmHg 71%
    14:00 +1°C° 0 mm 0 mps 585 mmHg 72%
    15:00 0°C° 0 mm 0 mps 585 mmHg 74%
    16:00 0°C° 0 mm 0 mps 585 mmHg 75%
    17:00 0°C° 0 mm 1 mps 585 mmHg 77%
    18:00 -2°C° 0 mm 1 mps 584 mmHg 78%
    19:00 -3°C° 0 mm 1 mps 584 mmHg 80%
    20:00 -4°C° 0 mm 1 mps 584 mmHg 81%
    21:00 -6°C° 0 mm 2 mps 584 mmHg 82%
    22:00 -6°C° 0 mm 2 mps 584 mmHg 83%
    23:00 -7°C° 0 mm 2 mps 584 mmHg 81%

    Day after tomorrow, 21 February, Thursday

    Time Temperature Precipitation Wind Pressure Humidity
    00:00 -7°C° 0 mm 2 mps 584 mmHg 80%
    01:00 -7°C° 0 mm 2 mps 584 mmHg 78%
    02:00 -7°C° 0 mm 2 mps 584 mmHg 76%
    03:00 -7°C° 0 mm 2 mps 584 mmHg 75%
    04:00 -7°C° 0 mm 2 mps 584 mmHg 73%
    05:00 -7°C° 0 mm 2 mps 584 mmHg 71%
    06:00 -7°C° 0 mm 2 mps 584 mmHg 70%
    07:00 -7°C° 0 mm 2 mps 585 mmHg 68%
    08:00 -5°C° 0 mm 2 mps 586 mmHg 68%
    09:00 -2°C° 0 mm 1 mps 587 mmHg 67%
    10:00 0°C° 0 mm 1 mps 588 mmHg 67%
    11:00 +1°C° 0 mm 1 mps 588 mmHg 67%
    12:00 +3°C° 0 mm 1 mps 589 mmHg 67%
    13:00 +4°C° 0 mm 1 mps 589 mmHg 67%
    14:00 +3°C° 0 mm 1 mps 589 mmHg 69%
    15:00 +3°C° 0 mm 1 mps 589 mmHg 70%
    16:00 +3°C° 0 mm 1 mps 588 mmHg 72%
    17:00 +1°C° 0 mm 1 mps 588 mmHg 75%
    18:00 -2°C° 0 mm 2 mps 587 mmHg 78%
    19:00 -4°C° 0 mm 2 mps 587 mmHg 80%
    20:00 -4°C° 0 mm 2 mps 587 mmHg 79%
    21:00 -6°C° 0 mm 3 mps 587 mmHg 78%
    22:00 -6°C° 0 mm 3 mps 587 mmHg 76%
    23:00 -6°C° 0 mm 3 mps 587 mmHg 75%

    22 February, Friday

    Time Temperature Precipitation Wind Pressure Humidity
    00:00 -6°C° 0 mm 3 mps 587 mmHg 74%
    01:00 -7°C° 0 mm 3 mps 587 mmHg 73%
    02:00 -7°C° 0 mm 3 mps 587 mmHg 73%
    03:00 -7°C° 0 mm 3 mps 587 mmHg 73%
    04:00 -7°C° 0 mm 3 mps 587 mmHg 73%
    05:00 -7°C° 0 mm 3 mps 587 mmHg 72%
    06:00 -8°C° 0 mm 3 mps 587 mmHg 71%
    07:00 -8°C° 0 mm 3 mps 587 mmHg 70%
    08:00 -6°C° 0 mm 3 mps 587 mmHg 68%
    09:00 -4°C° 0 mm 3 mps 588 mmHg 66%
    10:00 -1°C° 0 mm 3 mps 589 mmHg 64%
    11:00 0°C° 0 mm 3 mps 590 mmHg 64%
    12:00 0°C° 0 mm 3 mps 590 mmHg 64%
    13:00 +1°C° 0 mm 3 mps 590 mmHg 65%
    14:00 +1°C° 0 mm 3 mps 590 mmHg 65%
    15:00 +1°C° 0 mm 3 mps 589 mmHg 66%
    16:00 0°C° 0 mm 3 mps 589 mmHg 67%
    17:00 -1°C° 0 mm 3 mps 589 mmHg 71%
    18:00 -4°C° 0 mm 3 mps 588 mmHg 75%
    19:00 -6°C° 0 mm 3 mps 588 mmHg 79%
    20:00 -6°C° 0 mm 3 mps 588 mmHg 78%
    21:00 -7°C° 0 mm 3 mps 588 mmHg 76%
    22:00 -6°C° 0 mm 2 mps 588 mmHg 75%
    23:00 -6°C° 0 mm 2 mps 588 mmHg 73%

    23 February, Saturday

    Time Temperature Precipitation Wind Pressure Humidity
    00:00 -6°C° 0 mm 2 mps 588 mmHg 70%
    01:00 -6°C° 0 mm 2 mps 588 mmHg 68%
    02:00 -6°C° 0 mm 2 mps 588 mmHg 65%
    03:00 -6°C° 0 mm 2 mps 587 mmHg 61%
    04:00 -6°C° 0 mm 2 mps 587 mmHg 58%
    05:00 -6°C° 0 mm 2 mps 587 mmHg 55%
    06:00 -7°C° 0 mm 2 mps 587 mmHg 51%
    07:00 -7°C° 0 mm 2 mps 587 mmHg 48%
    08:00 -4°C° 0 mm 2 mps 588 mmHg 47%
    09:00 -2°C° 0 mm 2 mps 589 mmHg 47%
    10:00 +1°C° 0 mm 2 mps 590 mmHg 46%
    11:00 +3°C° 0 mm 1 mps 591 mmHg 46%
    12:00 +4°C° 0 mm 1 mps 591 mmHg 47%
    13:00 +5°C° 0 mm 1 mps 592 mmHg 47%
    14:00 +5°C° 0 mm 1 mps 591 mmHg 49%
    15:00 +5°C° 0 mm 1 mps 591 mmHg 51%
    16:00 +4°C° 0 mm 1 mps 590 mmHg 53%
    17:00 +1°C° 0 mm 2 mps 590 mmHg 54%
    18:00 -1°C° 0 mm 2 mps 589 mmHg 55%
    19:00 -3°C° 0 mm 2 mps 588 mmHg 56%
    20:00 -4°C° 0 mm 2 mps 588 mmHg 54%
    21:00 -4°C° 0 mm 2 mps 588 mmHg 51%
    22:00 -4°C° 0 mm 2 mps 588 mmHg 49%
    23:00 -4°C° 0 mm 2 mps 588 mmHg 49%

    24 February, Sunday

    Time Temperature Precipitation Wind Pressure Humidity
    00:00 -4°C° 0 mm 2 mps 588 mmHg 50%
    01:00 -4°C° 0 mm 2 mps 588 mmHg 51%
    02:00 -4°C° 0 mm 2 mps 588 mmHg 53%
    03:00 -5°C° 0 mm 2 mps 587 mmHg 55%
    04:00 -5°C° 0 mm 2 mps 587 mmHg 57%
    05:00 -5°C° 0 mm 2 mps 587 mmHg 58%
    06:00 -5°C° 0 mm 2 mps 587 mmHg 60%
    07:00 -6°C° 0 mm 3 mps 587 mmHg 62%
    08:00 -3°C° 0 mm 2 mps 588 mmHg 60%
    09:00 -1°C° 0 mm 2 mps 589 mmHg 58%
    10:00 +1°C° 0 mm 2 mps 590 mmHg 57%
    11:00 +2°C° 0 mm 2 mps 590 mmHg 56%
    12:00 +4°C° 0 mm 1 mps 591 mmHg 54%
    13:00 +5°C° 0 mm 1 mps 591 mmHg 53%
    14:00 +5°C° 0 mm 1 mps 591 mmHg 54%
    15:00 +5°C° 0 mm 1 mps 591 mmHg 55%
    16:00 +4°C° 0 mm 1 mps 590 mmHg 56%
    17:00 +2°C° 0 mm 1 mps 590 mmHg 59%
    18:00 0°C° 0 mm 1 mps 589 mmHg 63%
    19:00 -4°C° 0 mm 2 mps 588 mmHg 66%
    20:00 -4°C° 0 mm 2 mps 589 mmHg 62%
    21:00 -2°C° 0 mm 1 mps 589 mmHg 57%
    22:00 -2°C° 0 mm 1 mps 589 mmHg 53%
    23:00 -3°C° 0 mm 1 mps 589 mmHg 50%
    Show more